Skip Page Navigation
NASA JPL Caltech
NASA Logo - Jet Propulsion Laboratory + View the NASA Portal
+ Center for Near-Earth Object Studies
JPL Home Earth Solar System Stars & Galaxies Technology
JPL Solar System Dynamics
BODIES ORBITS EPHEMERIDES TOOLS PHYSICAL DATA DISCOVERY FAQ SITE MAP
IMPORTANT: The SSD Announcement email list is now available. Major changes are coming in the near future, including possible hostname and/or URL changes. To be notified of such changes, subscribe to this email list.

Please visit this page for more details.


JPL Small-Body Database Browser
Search: [ help ]  
105231 (2000 PJ10)
Classification: Main-belt Asteroid          SPK-ID: 2105231
Ephemeris | Orbit Diagram | Orbital Elements | Mission Design | Physical Parameters | Discovery Circumstances | Close-Approach Data ]

[ show orbit diagram ]
Orbital Elements at Epoch 2459000.5 (2020-May-31.0) TDB
Reference: JPL 21 (heliocentric ecliptic J2000)
 Element Value Uncertainty (1-sigma)   Units 
e .1586473396968744 5.4842e-08  
a 2.74828854915235 1.7633e-08 au
q 2.312279882109948 1.5343e-07 au
i 9.567341037214042 5.4611e-06 deg
node 50.2355885142564 2.8319e-05 deg
peri 298.7547976609426 3.2144e-05 deg
M 115.1482900435396 1.7182e-05 deg
tp 2458468.211710461501
(2018-Dec-15.71171046)
7.7759e-05 TDB
period 1664.147892785931
4.56
1.6015e-05
4.385e-08
d
yr
n .2163269271683108 2.0819e-09 deg/d
Q 3.184297216194753 2.043e-08 au
  Orbit Determination Parameters
   # obs. used (total)      755  
   data-arc span      7554 days (20.68 yr)  
   first obs. used      1999-05-22  
   last obs. used      2020-01-26  
   planetary ephem.      DE431  
   SB-pert. ephem.      SB431-N16  
   condition code      0  
   norm. resid. RMS      .54417  
   source      ORB  
   producer      Otto Matic  
   solution date      2020-Feb-24 02:19:12  

Additional Information
 Earth MOID = 1.3252 au 
 Jupiter MOID = 2.31233 au 
 T_jup = 3.308 
[ show covariance matrix ]

Ephemeris | Orbit Diagram | Orbital Elements | Mission Design | Physical Parameters | Discovery Circumstances | Close-Approach Data ]

Physical Parameter Table
Parameter Symbol Value Units Sigma Reference Notes
absolute magnitude H 14.9   n/a MPO417535  

105231 (2000 PJ10)          Discovered 2000-Aug-01 by LINEAR at Socorro
Reference: 20051019/Numbers.arcLast Updated: 2005-10-26

[ show close-approach data ]
Alternate Designations
 2000 PJ10 = 2001 XG22 
Ephemeris | Orbit Diagram | Orbital Elements | Mission Design | Physical Parameters | Discovery Circumstances | Close-Approach Data ]
ABOUT SSD CREDITS/AWARDS PRIVACY/COPYRIGHT GLOSSARY LINKS
FirstGov 2020-Jun-05 01:29 UT
(server date/time)  
NASA Home Page
Site Manager:   Ryan S. Park
Webmaster  Alan B. Chamberlin